{"data":{"norad_id":52580,"intl_designator":"2022-051AW","name":"STARLINK-3919","alt_names":[],"object_type":"PAYLOAD","status":"ACTIVE","operator":null,"country":"US","launch_date":"2022-05-13","launch_site_code":"AFWTR","launch_vehicle":null,"mission":null,"orbit_class":"UNKNOWN","rcs_meters":null,"size_class":null,"mass_kg":null,"dimensions":null,"purposes":["comms"],"wikipedia_slug":null,"has_3d_model":false,"image_url":null,"decayed_at":null,"tle_current":{"epoch":"2026-05-25T00:51:25.068384Z","epoch_age_seconds":75251,"freshness":"FRESH","line1":"1 52580U 22051AW  26145.03570681 -.00000076  00000+0  13305-4 0  9997","line2":"2 52580  53.2149 151.3990 0001102  73.6153 286.4960 15.08834214222909","mean_motion":15.08834214,"eccentricity":0.0001102,"inclination_deg":53.2149,"raan_deg":151.399,"arg_perigee_deg":73.6153,"mean_anomaly_deg":286.496,"bstar":1.3305e-5,"rev_number":22290,"period_min":95.437920656802,"perigee_km":538.99872214008,"apogee_km":540.5234268757,"semimajor_km":6917.8980745079,"source":"CELESTRAK","updated_at":"2026-05-25T13:38:17.194473Z"}}}